Regional Weather Roundup
Issued by NWS

Home | Current Version | Previous Version | Text Only | Print | Product List | Glossary Off
Versions: 1 2 3 4 5 6 7 8 9 10 11 12 13 14 15 16 17 18 19 20 21 22 23 24 25 26 27 28 29 30 31 32 33 34 35 36 37 38 39 40 41 42 43 44 45 46 47 48 49 50

000
ASUS43 KMKX 031707
RWRWI

WISCONSIN REGIONAL WEATHER ROUNDUP
NATIONAL WEATHER SERVICE MILWAUKEE/SULLIVAN WI
1200 PM CDT WED JUN 03 2015

NOTE: "FAIR" INDICATES FEW OR NO CLOUDS BELOW 12,000 FEET WITH NO
SIGNIFICANT WEATHER AND/OR OBSTRUCTIONS TO VISIBILITY.

WIZ001-002-006>008-014>016-023>028-031800-
NORTHWEST WISCONSIN

CITY           SKY/WX    TMP DP  RH WIND       PRES   REMARKS
SUPERIOR ARPT  CLOUDY    54  51  87 CALM      29.89R
ASHLAND        CLOUDY    68  58  70 S5        29.89S
HAYWARD        CLOUDY    67  55  65 S9        29.89S
SIREN          CLOUDY    67  56  69 S7        29.87S
CUMBERLAND     CLOUDY    64  54  68 S10       29.88S
RICE LAKE      CLOUDY    69  55  60 SE12G17   29.89F
CHETEK         CLOUDY    68  58  68 SE12G22   29.88F
LADYSMITH      CLOUDY    67  56  65 SE10G16   29.94S
EAU CLAIRE     NOT AVBL
MENOMONIE      CLOUDY    67  55  65 SE15      29.88F
NEW RICHMOND   CLOUDY    66  56  69 SE9       29.86S
OSCEOLA        CLOUDY    67  58  71 SE9       29.87F
$$

WIZ003>005-009-010-017-018-031800-
NORTH CENTRAL WISCONSIN

CITY           SKY/WX    TMP DP  RH WIND       PRES   REMARKS
MANITOWISH WTR CLOUDY    68  54  60 S14       29.94R
ARBOR VITAE    FAIR      72  56  58 S15G22    29.95R
WOODRUFF       FAIR      72  56  58 S15G22    29.95R
RHINELANDER    MOSUNNY   70  52  52 SW12G23   29.98S
EAGLE RIVER    MOSUNNY   70  49  47 SW14G22   29.95S
LAND O LAKES   MOSUNNY   73  51  46 SW13G18   29.96S
PHILLIPS       CLOUDY    67  55  65 S14G21    29.94R
TOMAHAWK       PTSUNNY   69  54  58 S7        29.98R
MEDFORD        PTSUNNY   67  55  65 S16G22    29.96S
MERRILL        NOT AVBL
$$

WIZ029-030-035-036-043>047-031800-
CENTRAL WISCONSIN

CITY           SKY/WX    TMP DP  RH WIND       PRES   REMARKS
WAUSAU         MOSUNNY   71  53  52 S18       29.96F
MOSINEE        SUNNY     70  55  60 S14       29.98F
MARSHFIELD     PTSUNNY   71  54  54 S14G21    29.96F
STEVENS POINT  PTSUNNY   69  52  54 S13       30.00S
WAUPACA        MOSUNNY   73  53  49 S13       30.02R
WAUTOMA        NOT AVBL
WISC RAPIDS    PTSUNNY   73  52  47 S10       29.98F
CAMP DOUGLAS   PTSUNNY   73  61  64 SE14      29.96R
$$

WIZ011>013-019>022-031-037>040-048>050-031800-
NORTHEAST WISCONSIN

CITY           SKY/WX    TMP DP  RH WIND       PRES   REMARKS
ANTIGO         MOSUNNY   67  54  62 S14       30.00S
SHAWANO        SUNNY     74  51  45 S12G17    30.01F
OCONTO         SUNNY     70  52  53 S12G17    30.03S
STURGEON BAY   SUNNY     64  52  63 S16G22    30.07F
GREEN BAY      MOSUNNY   74  52  46 S16       30.03F
MANITOWOC      NOT AVBL
APPLETON       MOSUNNY   70  52  52 S13       30.04S
CLINTONVILLE   MOSUNNY   72  52  49 SE10      30.01F
OSHKOSH        MOSUNNY   73  53  49 S14       30.02F
$$

WIZ032>034-041-042-053>061-031800-
SOUTHWEST WISCONSIN

CITY           SKY/WX    TMP DP  RH WIND       PRES   REMARKS
LA CROSSE      PTSUNNY   73  56  54 S14       29.91F
SPARTA         MOSUNNY   74  54  48 SE12      29.95F
VIROQUA        PTSUNNY   71  56  57 S15       29.95F
BOSCOBEL       PTSUNNY   75  57  53 S8G17     29.95F
PRAIRIE DU CHI PTSUNNY   73  53  49 S8G17     29.93F
PLATTEVILLE    PTSUNNY   72  58  62 S17       29.98F
$$

WIZ056-057-062-063-064-067-068-031800-
SOUTH CENTRAL WISCONSIN

CITY           SKY/WX    TMP DP  RH WIND       PRES   REMARKS
REEDSBURG      PTSUNNY   72  58  60 S10G20    29.98F
BARABOO/DELLS  MOSUNNY   71  56  59 SE13G21   29.99F
LONE ROCK      NOT AVBL
MINERAL POINT  PTSUNNY   72  55  56 S13       29.99F
MADISON        PTSUNNY   73  55  53 S13G18    30.00F
MIDDLETON      PTSUNNY   73  54  50 S12       30.02S
WATERTOWN      MOSUNNY   71  56  60 S6        30.02F
MONROE         PTSUNNY   72  55  56 S10G16    30.01F
JANESVILLE     MOSUNNY   73  54  49 S9        30.02F
$$

WIZ051-052-058>065-066-070>072-031800-
SOUTHEAST WISCONSIN

CITY           SKY/WX    TMP DP  RH WIND       PRES   REMARKS
MILWAUKEE      MOSUNNY   65  51  60 SE12      30.06S
WAUKESHA       SUNNY     68  50  52 S7        30.06S
MILWAUKEE/TIMM SUNNY     70  46  43 SE10      30.05F
RACINE         SUNNY     63  49  60 SE9       30.08S
BURLINGTON     MOSUNNY   69  53  57 SW7       30.05S
KENOSHA        SUNNY     68  54  60 E12       30.05F
FOND DU LAC    MOSUNNY   72  54  53 S8G17     30.02F
SHEBOYGAN      SUNNY     65  53  65 S10       30.06S
WEST BEND      MOSUNNY   70  50  49 SE8       30.05S
JUNEAU         MOSUNNY   69  54  59 SE14      30.04F
$$

LSZ147-162-031800-
LAKE SUPERIOR

STATION/POSITION TIME  TEMP    WIND        PRES    WAVE
                       AIR SEA DIR/SP/G            HT/PER
                 (UTC) (F)     (DEG/KT/KT) (MB)    (FT/S)
W MID LAKE BUOY  1550   43 37  340/  8/ 10   N/A     1
DEVILS ISLAND    1600   60     190/  1/  3   N/A
PORT WING        1600           40/  4/  5   N/A
SAXON HARBOR     1500   68     220/  6/ 13   N/A
$$

LMZ867-665-643>646-031800-
LAKE MICHIGAN

STATION/POSITION TIME  TEMP    WIND        PRES    WAVE
                       AIR SEA DIR/SP/G            HT/PER
                 (UTC) (F)     (DEG/KT/KT) (MB)    (FT/S)
CHAMBERS ISLAND  1600   66     170/  7/ 10   N/A
N MID LAKE BUOY  1550   42 37  190/ 10/ 10   N/A     1/ 3
NORTHPORT PIER   1500   55     150/ 10/ 13   N/A
SISTER BAY       1603   65     190/ 19/ 22   N/A
ALGOMA LAKESHORE 1639          210/ 12/ 14   N/A
KEWAUNEE LAKESHO 1600   48     180/ 12/ 13   N/A
SHEBOYGAN LAKESH 1600   47     160/  9/ 10   N/A
PORT WASHINGTON  1640   53     170/  5/  6   N/A
ATWATER BUOY     1600   49 48  140/ 10/ 12   N/A
MILWAUKEE LAKESH 1600   50     120/ 10/ 12   N/A
S MID LAKE BUOY  1550   44 39  110/  6/  8   N/A
KENOSHA   LAKESH 1600   52     150/  8/  9   N/A
$$

TC  - TEMPERATURE IN CELSIUS
VSB - VISIBILITY IN STATUTE MILES
WCI - WIND CHILL INDEX
HX  - HEAT INDEX




USA.gov is the U.S. government's official web portal to all federal, state and local government web resources and services.